Location: Venise Bay
(45.0825°N, 73.1481°W)
Time: 23:23:39
(UTC-05:00)

ISS - Pass Details

Date: 04 December 2021
Orbit: 413 x 423 km, 51.6° (Epoch: 20 January)

Event Time Altitude Azimuth Distance (km) Brightness Sun altitude
Rises 16:30:38 0° 297° (WNW) 2,384 0.6 -3.8°
Reaches altitude 10° 16:32:53 10° 308° (NW) 1,516 -0.6 -4.2°
Maximum altitude 16:35:59 32° 13° (NNE) 760 -2.8 -4.6°
Drops below altitude 10° 16:39:04 10° 79° (ENE) 1,508 -1.6 -5.1°
Enters shadow 16:40:05 - 85° (E) 1,890 -1.0 -5.3°
